SCP
2 2 2 2 2 2 2 2 2 2 2 2 2 1 2 2 2 1 2 2 2 2 3 3 3 3 3 3 2 2 2 1 1 1 1 1 2 2 2 1 1 1 1
3 3 2 2 2 2 2 2 2 2 2 2 2 1 1 2 2 1 1 2 2 2 2 3 3 3 3 3 3 2 2 2 2 1 1 1 2 2 2 2 2 1 1
3 3 3 2 2 2 2 2 2 2 1 1 1 1 1 1 1 1 1 2 2 2 2 2 2 2 2 2 3 2 2 2 2 2 1 1 1 1 2 2 2 2 2
4 4 3 2 2 1 1 1 1 1 1 1 1 1 1 1 1 1 1 1 2 2 2 2 2 2 2 2 2 2 2 2 2 2 2 1 1 2 2 2 2 2 2
4 3 3 2 2 1 1 1 1 1 1 1 1 0 1 1 1 1 1 1 1 1 2 2 2 2 2 2 2 2 2 2 2 2 2 2 1 2 2 2 2 2 2
3 2 2 2 2 1 1 1 1 0 0 0 0 0 0 1 1 1 1 1 1 1 1 2 2 2 2 2 2 2 2 2 2 2 2 2 2 2 2 2 2 2 2
2 2 2 2 2 1 1 1 1 0 0 0 0 0 0 0 0 0 1 1 1 1 1 2 2 2 2 3 2 2 2 2 2 2 2 2 2 2 2 2 1 2 2
2 2 2 2 2 1 1 1 1 0 0 0 0 0 0 0 0 0 0 1 1 1 1 1 2 2 3 3 3 3 2 2 2 3 3 2 2 2 2 1 1 1 2
2 2 2 2 1 1 1 1 1 1 1 0 0 0 0 0 0 0 0 0 1 1 1 1 1 2 2 3 3 3 2 2 3 3 3 2 2 2 13 21 13 2 2
2 2 2 2 1 1 1 1 1 1 1 1 0 0 0 0 0 0 0 0 0 0 0 1 1 1 2 2 3 3 3 2 3 3 3 3 3 2 21 41 22 2 2
2 2 2 2 2 1 1 1 1 1 1 1 1 0 0 0 0 0 0 0 0 0 0 0 1 1 1 2 2 2 2 2 2 2 3 3 3 2 14 22 14 2 2
3 3 2 2 2 1 1 1 1 2 2 1 1 1 1 0 0 0 0 0 0 0 0 0 1 1 1 1 1 1 1 1 1 2 2 2 2 2 2 2 2 2 2
2 2 2 2 1 1 1 1 2 2 2 2 1 1 1 1 1 0 0 0 0 0 0 0 0 1 1 1 1 1 1 1 1 1 1 1 1 1 2 2 2 2 2
1 1 1 1 1 1 1 1 2 2 2 2 1 1 1 1 1 1 1 0 0 0 0 0 0 0 0 1 1 1 1 1 0 0 1 1 1 1 1 1 1 1 1
0 0 0 1 1 1 1 1 1 1 1 1 1 1 1 1 1 1 1 1 0 0 0 0 0 0 0 0 0 0 1 0 0 0 0 0 0 0 0 0 0 0 0
0 0 0 0 1 1 1 1 1 1 1 1 1 1 1 1 1 1 1 1 1 0 0 0 0 0 0 0 0 0 0 0 0 0 0 0 0 0 0 0 0 0 0
0 0 0 0 0 0 0 1 1 1 1 1 1 1 1 1 1 1 1 1 1 0 0 0 0 0 0 0 0 0 0 0 0 0 0 0 0 0 0 0 0 0 0
0 0 0 0 0 0 0 0 1 1 1 1 0 0 0 1 1 1 1 1 1 1 0 0 0 0 0 0 0 0 0 0 0 0 0 0 0 0 0 0 0 0 0
0 0 0 0 0 0 0 0 1 1 1 0 0 0 0 0 0 0 1 1 1 1 0 0 0 0 0 0 0 0 0 0 0 0 0 0 0 0 0 0 0 0 0
0 0 0 0 0 0 0 0 0 0 1 0 0 0 0 0 0 0 0 0 0 0 0 0 0 0 0 0 0 0 0 0 0 0 0 0 0 0 0 0 0 0 0
1 0 0 0 0 0 0 0 0 0 0 0 0 0 0 0 0 0 0 0 0 0 0 0 0 0 0 0 0 0 0 0 0 0 0 0 0 0 0 0 0 0 0
0 0 0 0 0 0 0 0 0 0 0 0 0 0 0 0 0 0 0 0 0 0 0 0 1 1 0 0 0 0 0 0 0 0 0 0 0 0 0 0 0 0 0
0 0 0 0 0 0 0 0 0 0 0 0 0 0 0 0 0 0 0 0 0 0 0 0 0 1 0 0 0 0 0 0 0 0 0 0 0 0 0 0 0 0 0
0 0 0 0 0 0 0 0 0 0 0 0 0 0 0 0 0 0 0 0 0 0 0 0 0 0 0 0 0 0 0 0 0 0 0 0 0 0 0 0 0 0 0
0 0 0 0 0 0 0 0 0 0 0 0 0 0 0 0 0 0 0 0 0 0 0 0 0 0 0 0 0 0 0 0 0 0 0 0 0 0 0 0 0 0 0
0 0 0 0 0 0 0 0 0 0 0 0 0 0 0 0 0 0 0 0 0 0 0 0 0 0 0 0 0 0 0 0 0 0 0 0 0 0 0 0 0 0 0
Wind_Speed
6 5 4 4 4 4 4 5 5 6 7 7 7 8 8 8 7 6 5 12 14 15 17 18 18 18 18 17 17 17 17 18 17 17 18 18 18 18 18 18 18 17 16
5 4 3 3 3 3 4 4 5 5 5 5 6 7 6 6 6 7 6 7 13 15 16 17 18 18 18 17 17 17 17 17 17 17 17 18 18 18 18 19 18 18 17
6 4 3 3 3 3 3 3 4 3 3 4 5 5 5 5 6 6 6 5 6 12 16 16 17 18 18 18 18 17 17 17 17 17 17 18 18 18 18 18 19 18 18
5 4 2 2 2 2 1 2 2 2 2 2 3 4 4 4 6 6 5 5 5 5 9 16 17 17 18 19 19 18 17 17 16 17 17 18 18 18 18 18 19 18 18
5 4 2 2 2 1 1 1 1 2 2 2 3 4 4 4 5 6 6 6 6 6 5 9 14 15 17 18 18 18 17 17 17 17 17 18 18 18 18 18 18 18 19
5 4 2 2 1 1 1 1 1 1 2 3 3 4 4 5 4 5 6 5 5 7 6 7 6 7 13 15 16 17 17 16 16 17 17 18 17 17 17 17 18 18 19
5 4 3 2 2 1 1 1 1 1 2 1 1 3 4 4 5 5 4 4 5 6 5 5 4 4 4 9 12 14 16 17 17 16 16 16 16 16 16 17 17 18 18
4 4 4 3 2 2 1 1 1 0 1 0 1 1 3 4 3 3 2 3 4 3 4 5 4 5 5 4 6 11 13 14 16 15 14 13 13 14 15 17 17 17 18
4 4 5 4 3 3 2 2 2 2 1 1 1 2 1 2 4 4 3 2 2 2 3 3 5 5 6 5 5 8 11 11 12 13 12 12 12 12 13 15 16 17 18
2 3 4 5 4 3 3 3 3 3 2 2 1 2 3 3 2 4 4 3 3 3 3 3 4 4 5 5 6 9 10 8 9 11 11 11 11 11 11 13 15 17 17
3 3 3 4 4 3 4 4 3 3 3 3 3 2 2 2 3 3 4 4 3 3 3 3 3 3 3 4 4 6 8 8 8 8 9 10 9 9 9 11 13 15 16
3 4 3 2 3 3 4 4 4 4 4 4 3 3 3 3 3 3 4 4 4 4 3 3 3 3 3 3 5 8 9 8 8 6 6 6 7 7 7 7 10 12 13
3 4 4 3 2 3 4 4 4 4 5 5 5 4 4 4 4 3 4 4 4 3 2 2 2 2 2 2 3 8 8 8 7 6 4 4 3 3 3 3 4 7 9
3 4 4 4 4 3 3 4 4 5 4 5 6 5 4 4 4 4 4 3 4 3 2 3 1 1 2 2 4 6 5 7 7 7 6 5 4 3 3 3 2 2 2
3 4 4 4 4 4 4 4 4 5 5 5 6 6 5 4 4 4 4 4 4 4 3 3 1 1 2 3 5 4 4 7 8 8 7 7 6 6 5 5 5 4 4
4 4 5 5 5 5 5 4 4 5 6 6 5 6 6 5 4 4 4 4 5 5 4 3 2 2 3 4 6 5 5 9 9 9 9 9 8 8 8 7 7 7 7
5 5 5 5 5 5 5 5 5 6 6 6 6 7 7 6 5 4 4 4 4 4 5 3 1 3 4 6 5 5 5 5 6 10 10 10 10 10 10 10 10 10 10
6 6 6 5 6 6 5 5 7 7 6 7 7 7 7 6 6 5 4 5 5 5 5 4 2 3 4 7 7 7 6 6 6 10 11 11 11 11 11 11 11 11 11
7 6 6 6 6 6 6 6 6 7 7 7 7 7 8 7 7 5 5 5 4 4 4 4 4 3 3 6 7 7 7 5 7 8 11 11 11 11 12 12 12 12 11
7 7 7 6 6 6 7 7 6 7 7 7 7 7 8 8 8 7 6 6 5 5 5 5 5 5 5 6 7 7 6 4 5 6 7 8 10 11 11 11 12 12 11
8 7 7 6 6 6 6 6 6 7 7 7 7 7 8 9 10 8 6 6 6 5 5 6 6 5 6 8 7 6 8 6 4 4 5 4 5 5 5 8 10 11 11
7 7 7 7 7 7 9 11 9 7 7 7 7 7 7 8 10 11 12 11 10 9 8 7 6 8 8 8 7 9 9 8 4 3 4 4 3 3 2 3 6 8 9
7 7 8 7 8 9 13 13 13 8 7 7 7 7 7 6 7 5 7 9 10 12 12 10 9 9 10 11 11 11 9 7 5 7 5 4 2 2 2 3 6 7 8
7 7 8 8 8 10 13 13 13 8 7 8 8 8 7 7 7 7 6 5 5 6 9 8 9 9 9 10 11 11 11 7 6 5 4 4 2 2 3 2 4 6 7
7 7 7 8 8 10 13 13 12 6 6 8 8 8 8 8 10 10 8 7 5 3 5 9 10 11 14 15 13 10 10 10 8 4 2 4 3 3 2 2 2 4 6
8 7 7 8 8 9 12 14 12 5 6 7 6 7 10 10 11 12 9 9 9 6 8 9 9 11 11 13 16 13 12 11 9 5 3 4 4 4 3 1 1 1 2
Wind_Direction
217 225 230 227 223 213 214 217 225 231 231 230 232 233 234 233 232 230 238 242 240 232 224 222 217 219 221 222 221 220 219 220 219 216 216 215 215 213 212 211 210 210 209
209 211 224 230 226 216 216 215 222 227 230 228 234 236 236 232 230 229 231 239 235 228 225 223 222 223 224 227 226 225 223 223 221 219 219 218 217 216 214 213 212 211 210
199 197 207 222 229 223 215 216 231 229 232 229 236 241 240 236 236 233 231 229 231 231 231 230 229 227 228 231 231 228 226 225 223 221 220 220 219 217 216 215 214 212 210
176 174 184 217 223 216 212 221 233 239 241 238 247 251 248 243 244 240 234 230 226 234 237 235 233 232 233 235 236 234 230 226 225 225 224 222 220 219 218 218 216 213 211
160 157 176 206 213 211 228 245 222 216 239 253 253 252 250 249 248 252 244 239 231 229 231 236 235 233 236 239 238 239 238 232 228 227 227 225 223 221 220 219 218 215 213
157 152 162 183 173 180 252 249 241 239 229 242 265 269 258 255 249 243 245 245 239 235 231 230 228 237 240 241 241 241 241 240 236 230 229 228 225 222 221 220 220 218 215
157 151 153 156 148 163 223 244 234 268 270 251 304 307 292 268 257 249 240 238 242 242 232 225 221 223 238 239 237 238 240 240 238 233 230 230 228 224 222 221 220 219 217
163 162 164 173 171 166 232 271 186 213 277 218 161 325 328 330 319 282 256 240 249 247 243 240 222 216 222 225 230 232 236 238 237 229 229 229 228 226 225 223 222 220 218
178 176 180 184 187 177 197 220 196 177 228 273 187 175 207 277 309 313 305 279 274 264 254 248 237 225 220 217 222 229 231 234 236 230 228 229 227 226 227 225 223 221 219
226 209 194 190 194 191 200 216 193 182 179 235 266 212 199 201 241 305 313 307 296 279 268 257 248 235 223 212 215 218 221 223 227 229 231 229 223 223 228 229 227 224 220
301 274 232 206 201 203 210 214 210 202 192 201 212 222 229 225 212 223 280 302 314 290 273 253 244 240 227 213 207 206 205 204 213 218 220 220 219 221 227 230 230 228 223
337 339 323 255 227 218 217 216 217 218 218 218 217 209 206 211 215 214 249 275 286 283 276 259 241 234 220 204 206 197 193 191 192 193 204 208 211 212 217 225 229 230 226
345 341 343 313 275 249 241 228 219 224 220 223 224 223 218 219 210 208 232 262 272 284 280 269 243 228 202 171 176 177 178 174 167 165 174 173 172 178 189 200 221 226 226
317 324 326 321 311 292 278 258 244 234 228 228 234 228 225 228 214 209 212 230 273 282 269 260 275 213 166 147 149 150 147 151 143 137 132 128 120 112 108 111 118 150 197
307 323 317 314 313 308 296 280 261 252 241 236 236 233 232 232 220 218 214 205 217 257 269 246 234 167 131 118 135 126 125 133 129 124 121 116 108 98 92 89 91 92 101
296 304 306 306 303 301 296 284 273 265 254 248 240 236 238 233 227 220 215 212 208 216 243 235 219 169 142 133 125 116 118 122 117 116 112 107 100 94 91 89 87 87 87
284 288 288 289 291 290 290 289 280 273 264 260 253 242 242 233 226 224 214 212 212 204 230 239 199 150 136 135 123 114 110 105 109 109 107 102 97 93 88 85 82 81 83
268 270 276 280 280 284 283 282 283 284 267 259 255 247 245 240 229 222 214 217 215 205 205 214 181 158 142 145 135 129 121 113 106 107 105 102 98 94 89 85 82 80 80
261 262 262 266 271 275 276 273 271 276 269 258 252 248 245 235 233 225 217 218 216 211 197 185 174 153 137 145 136 125 115 110 109 109 100 96 96 94 91 88 86 83 82
254 257 255 254 258 264 269 268 269 269 269 264 255 248 243 230 227 222 219 216 208 201 187 173 163 156 149 147 141 135 126 120 116 112 97 95 95 91 92 93 93 90 87
253 250 250 253 256 262 265 268 270 276 271 269 264 253 244 236 227 220 214 204 195 192 179 172 166 160 156 158 154 146 138 127 98 110 109 100 92 84 81 90 94 96 94
249 246 245 247 251 263 273 276 273 271 266 260 262 261 253 240 232 228 220 207 195 189 184 177 177 172 167 159 149 148 144 142 133 146 118 105 98 93 82 81 102 104 102
242 243 243 242 246 253 261 266 271 266 258 253 251 253 253 240 222 216 212 209 207 201 189 180 177 176 168 164 155 154 156 151 138 154 129 108 95 92 78 96 114 112 108
236 239 242 243 246 256 259 261 268 266 254 251 247 243 238 234 218 200 191 189 194 197 195 186 180 175 165 161 161 155 148 122 104 132 128 116 118 93 77 64 106 114 113
238 237 238 241 245 255 258 259 263 259 253 252 250 244 231 225 216 196 181 175 170 176 172 166 161 156 154 154 150 141 143 139 138 150 143 115 127 103 75 55 66 106 110
237 240 242 240 241 249 256 257 257 245 250 253 250 241 227 215 205 192 182 172 169 164 146 134 134 136 145 151 154 157 155 151 144 147 171 121 138 128 108 61 77 75 88